Helsinki, Finland

6:07 AM EEST on September 01, 2016 (GMT +0300)
Vantaa

Weather History for EFHK - December, 2012

Change the Weather History Date:

Thursday, December 6, 2012

  Actual Average Record
Temperature  
Mean Temperature 22 °F -  
Max Temperature 26 °F 30 °F 49 °F (2015)
Min Temperature 18 °F 20 °F 6 °F (2002)
Degree Days  
Heating Degree Days 43    
Moisture  
Dew Point 24 °F    
Average Humidity 93    
Maximum Humidity 94    
Minimum Humidity 86    
Precipitation  
Precipitation 0.08 in 0.07 in - ()
Sea Level Pressure  
Sea Level Pressure 29.72 in    
Wind  
Wind Speed 10 mph ()    
Max Wind Speed 14 mph    
Max Gust Speed -    
Visibility 4.3 miles    
Events Rain , Snow    
Averages and records for this station are not official NWS values.
T = Trace of Precipitation, MM = Missing Value Source: Averaged Metar Reports

Daily Weather History Graph

Daily Weather History Graph

Search for Another Location

Airport or City:

Trip Planner

Search our weather history database for the weather conditions in past years. The results will help you decide how hot, cold, wet, or windy it might be!

Date:

Astronomy

Dec. 06, 2012 Rise Set
Actual Time 9:07 AM EET 3:14 PM EET
Civil Twilight 8:11 AM EET 4:11 PM EET
Nautical Twilight 7:14 AM EET 5:07 PM EET
Astronomical Twilight 6:23 AM EET 5:59 PM EET
Moon No Moon Rise 12:19 PM EET (12/6)
Length of Visible Light 8h 00m
Length of Day
6h 06m
Waning Gibbous, 52% of the Moon is Illuminated
Dec 6
Waning Gibbous
Dec 6
Last Quarter
Dec 13
New
Dec 20
First Quarter
Dec 28
Full

Hourly Weather History & Observations

Time (EET) Temp. Windchill Dew Point Humidity Pressure Visibility Wind Dir Wind Speed Gust Speed Precip Events Conditions
12:20 AM 23.0 °F 12.4 °F 21.2 °F 93% 29.59 in 3.1 mi ENE 10.4 mph - N/A Snow Light Snow Grains
12:50 AM 23.0 °F 11.7 °F 21.2 °F 93% 29.59 in 3.7 mi ENE 11.5 mph - N/A Snow Light Snow Grains
1:20 AM 24.8 °F 14.0 °F 23.0 °F 93% 29.59 in 4.3 mi ENE 11.5 mph - N/A Snow Light Snow Grains
1:50 AM 24.8 °F 14.6 °F 23.0 °F 93% 29.59 in 6.2 mi ENE 10.4 mph - N/A   Mostly Cloudy
2:00 AM 24 °F - 23 °F 94% 29.64 in 6 mi East 13.4 mph - - Rain Light Freezing Rain
2:20 AM 24.8 °F 14.0 °F 23.0 °F 93% 29.62 in 6.2 mi ENE 11.5 mph - N/A   Mostly Cloudy
2:50 AM 24.8 °F 14.6 °F 23.0 °F 93% 29.62 in 6.2 mi ENE 10.4 mph - N/A   Mostly Cloudy
3:20 AM 24.8 °F 14.6 °F 23.0 °F 93% 29.62 in 6.2 mi NE 10.4 mph - N/A   Mostly Cloudy
3:50 AM 24.8 °F 14.0 °F 23.0 °F 93% 29.62 in 6.2 mi NE 11.5 mph - N/A   Mostly Cloudy
4:20 AM 24.8 °F 14.0 °F 23.0 °F 93% 29.62 in 6.2 mi NE 11.5 mph - N/A   Mostly Cloudy
4:50 AM 24.8 °F 14.0 °F 23.0 °F 93% 29.62 in 6.2 mi NE 11.5 mph - N/A   Mostly Cloudy
5:20 AM 24.8 °F 14.0 °F 23.0 °F 93% 29.62 in 5.6 mi NE 11.5 mph - N/A   Mostly Cloudy
5:50 AM 24.8 °F 14.0 °F 23.0 °F 93% 29.65 in 6.2 mi ENE 11.5 mph - N/A   Mostly Cloudy
6:20 AM 24.8 °F 14.0 °F 23.0 °F 93% 29.65 in 6.2 mi NE 11.5 mph - N/A Snow Light Snow Grains
6:50 AM 24.8 °F 14.0 °F 23.0 °F 93% 29.65 in 6.2 mi NE 11.5 mph - N/A Snow Light Snow Grains
7:20 AM 24.8 °F 13.4 °F 23.0 °F 93% 29.65 in 6.2 mi NE 12.7 mph - N/A Snow Light Snow Grains
7:50 AM 24.8 °F 14.0 °F 23.0 °F 93% 29.68 in 5.6 mi ENE 11.5 mph - N/A Snow Light Snow Grains
8:00 AM 24 °F - 22 °F 91% 29.70 in 6 mi ENE 13.4 mph - - Snow Snow Grains
8:20 AM 24.8 °F 13.4 °F 23.0 °F 93% 29.68 in 5.6 mi ENE 12.7 mph - N/A Snow Light Snow Grains
8:50 AM 24.8 °F 13.4 °F 23.0 °F 93% 29.68 in 3.7 mi ENE 12.7 mph - N/A Snow Light Snow
9:20 AM 24.8 °F 13.4 °F 23.0 °F 93% 29.68 in 3.1 mi ENE 12.7 mph - N/A Snow Light Snow Grains
9:50 AM 24.8 °F 12.9 °F 23.0 °F 93% 29.68 in 2.2 mi ENE 13.8 mph - N/A Snow Light Snow Grains
10:20 AM 24.8 °F 13.4 °F 23.0 °F 93% 29.71 in 1.6 mi ENE 12.7 mph - N/A Snow Light Snow Grains
10:50 AM 24.8 °F 12.9 °F 23.0 °F 93% 29.71 in 1.6 mi NE 13.8 mph - N/A Snow Light Snow Grains
11:20 AM 24.8 °F 13.4 °F 23.0 °F 93% 29.71 in 2.2 mi NE 12.7 mph - N/A Snow Light Snow Grains
11:50 AM 24.8 °F 12.9 °F 23.0 °F 93% 29.71 in 1.6 mi NE 13.8 mph - N/A Snow Light Snow
12:20 PM 24.8 °F 12.9 °F 23.0 °F 93% 29.71 in 1.6 mi NE 13.8 mph - N/A Snow Light Snow
12:50 PM 24.8 °F 12.9 °F 23.0 °F 93% 29.71 in 1.6 mi NE 13.8 mph - N/A Snow Light Snow
1:20 PM 24.8 °F 14.0 °F 23.0 °F 93% 29.74 in 0.7 mi NE 11.5 mph - N/A Snow Snow
1:50 PM 24.8 °F 14.0 °F 23.0 °F 93% 29.74 in 1.6 mi ENE 11.5 mph - N/A Snow Light Snow
2:00 PM 25 °F - 24 °F 93% 29.76 in 2 mi ENE 13.4 mph - - Snow Light Snow
2:20 PM 24.8 °F 14.0 °F 23.0 °F 93% 29.74 in 1.2 mi ENE 11.5 mph - N/A Snow Light Snow
2:50 PM 24.8 °F 14.6 °F 23.0 °F 93% 29.74 in 1.2 mi ENE 10.4 mph - N/A Snow Light Snow
3:20 PM 24.8 °F 14.6 °F 23.0 °F 93% 29.74 in 1.6 mi ENE 10.4 mph - N/A Snow Light Snow
3:50 PM 26.6 °F 17.5 °F 24.8 °F 93% 29.77 in 2.5 mi ENE 9.2 mph - N/A Snow Light Snow
4:20 PM 26.6 °F 16.2 °F 23.0 °F 86% 29.77 in 2.5 mi ENE 11.5 mph - N/A Snow Light Snow
4:50 PM 26.6 °F 17.5 °F 24.8 °F 93% 29.77 in 2.5 mi ENE 9.2 mph - N/A Snow Light Snow
5:20 PM 26.6 °F 17.5 °F 24.8 °F 93% 29.77 in 1.9 mi ENE 9.2 mph - N/A Snow Light Snow
5:50 PM 26.6 °F 16.8 °F 24.8 °F 93% 29.80 in 2.5 mi ENE 10.4 mph - N/A Snow Light Snow
6:20 PM 26.6 °F 16.8 °F 24.8 °F 93% 29.80 in 3.1 mi ENE 10.4 mph - N/A Snow Light Snow
6:50 PM 26.6 °F 16.2 °F 24.8 °F 93% 29.80 in 5.0 mi NE 11.5 mph - N/A Snow Light Snow
7:20 PM 26.6 °F 16.8 °F 24.8 °F 93% 29.80 in 5.6 mi ENE 10.4 mph - N/A Snow Light Snow
7:50 PM 26.6 °F 16.2 °F 24.8 °F 93% 29.83 in 5.6 mi NE 11.5 mph - N/A   Mostly Cloudy
8:00 PM 26 °F - 25 °F 94% 29.85 in 6 mi ENE 13.4 mph - - Snow Light Snow
8:20 PM 26.6 °F 18.2 °F 24.8 °F 93% 29.83 in 5.6 mi NE 8.1 mph - N/A   Mostly Cloudy
8:50 PM 26.6 °F 17.5 °F 24.8 °F 93% 29.83 in 5.6 mi ENE 9.2 mph - N/A   Mostly Cloudy
9:20 PM 26.6 °F 17.5 °F 24.8 °F 93% 29.86 in 6.2 mi ENE 9.2 mph - N/A   Mostly Cloudy
9:50 PM 26.6 °F 18.2 °F 24.8 °F 93% 29.86 in 6.2 mi NE 8.1 mph - N/A   Mostly Cloudy
10:20 PM 26.6 °F 17.5 °F 24.8 °F 93% 29.86 in 6.2 mi NE 9.2 mph - N/A   Mostly Cloudy
10:50 PM 26.6 °F 17.5 °F 24.8 °F 93% 29.86 in 6.2 mi NE 9.2 mph - N/A   Mostly Cloudy
11:20 PM 26.6 °F 16.8 °F 24.8 °F 93% 29.86 in 6.2 mi NE 10.4 mph - N/A   Mostly Cloudy
11:50 PM 26.6 °F 18.2 °F 24.8 °F 93% 29.86 in 6.2 mi NE 8.1 mph - N/A   Mostly Cloudy